Flag for United Kingdom Weather past 2 weeks in Sheffield, England, United Kingdom

Now
55 °F

Passing clouds.


Feels Like: 53 °F
Forecast: 45 / 55 °F
Wind: 8 mph from Southwest

Location: Manchester Airport

Current Time: May 30, 2015 at 4:34:55 PM

Latest Report: May 30, 2015 at 3:50 PM


Visibility: N/A

Pressure: 29.92 "Hg

Humidity: 59%

Dew point: 41 °F

Location of SheffieldLocation

Historic Weather in Sheffield — Graph

°F

Sheffield temperature yesterday

Maximum temperature yesterday: 54 °F (at 6:20 PM)
Minimum temperature yesterday: 43 °F (at 11:50 PM)
Average temperature yesterday: 48 °F

Past Weeks' High & Low Weather Summary

 TemperatureHumidityPressure
High64 °F (May 23, 3:20 PM)100% (May 18, 4:50 AM)30.33 "Hg (May 18, 4:50 AM)
Low41 °F (May 19, 1:50 AM)44% (May 16, 3:50 PM)29.45 "Hg (May 19, 2:20 AM)
Average51 °F79%30.03 "Hg
* Reported May 15 3:20 PM — May 30 3:20 PM, Sheffield, Weather by CustomWeather, © 2015

Note: Actual official high and low records may vary slightly from our data, if they occured in-between our weather recording intervals... More about our weather records

Advertising

Sheffield weather history for previous 24 hours

 ConditionsComfort  
Time TempWeatherWind HumidityBarometerVisibility
3:20 PM
Sat, May 30
55 °FPassing clouds.7 mph59%29.92 "HgN/A
2:50 PM57 °FPassing clouds.6 mph55%29.92 "HgN/A
2:20 PM57 °FPassing clouds.9 mph51%29.92 "HgN/A
1:50 PM55 °FPassing clouds.8 mph55%29.92 "HgN/A
1:20 PM55 °FPassing clouds.12 mph51%29.92 "HgN/A
12:50 PM54 °FPassing clouds.12 mph58%29.92 "HgN/A
12:20 PM55 °FPassing clouds.12 mph55%29.92 "HgN/A
11:50 AM54 °FPassing clouds.9 mph58%29.92 "HgN/A
11:20 AM54 °FScattered clouds.13 mph63%29.92 "HgN/A
10:50 AM52 °FScattered clouds.7 mph67%29.92 "HgN/A
10:20 AM50 °FScattered clouds.10 mph76%29.92 "HgN/A
9:50 AM50 °FScattered clouds.12 mph76%29.92 "HgN/A
9:20 AM50 °FScattered clouds.9 mph76%29.92 "HgN/A
8:50 AM48 °FScattered clouds.10 mph87%29.89 "HgN/A
8:20 AM48 °FScattered clouds.8 mph82%29.89 "HgN/A
7:50 AM48 °FPassing clouds.8 mph82%29.89 "HgN/A
7:20 AM46 °FPassing clouds.6 mph93%29.89 "HgN/A
6:50 AM43 °FPassing clouds.6 mph100%29.86 "HgN/A
6:20 AM43 °FPassing clouds.8 mph100%29.86 "HgN/A
5:50 AM43 °FLight rain. Partly sunny.5 mph100%29.86 "HgN/A
5:20 AM41 °FPartly cloudy.3 mph100%29.86 "HgN/A
4:50 AM41 °FPassing clouds.5 mph93%29.83 "HgN/A
4:20 AM41 °FPassing clouds.5 mph93%29.83 "HgN/A
3:50 AM41 °FPartly cloudy.5 mph100%29.83 "HgN/A
3:20 AM41 °FPassing clouds.3 mph93%29.83 "HgN/A
2:50 AM41 °FQuite cool.6 mph100%29.83 "HgN/A
2:20 AM41 °FClear.5 mph93%29.80 "Hg10 mi
1:50 AM43 °FPassing clouds.3 mph93%29.80 "HgN/A
1:20 AM43 °FPartly cloudy.6 mph93%29.80 "HgN/A
12:50 AM45 °FPartly cloudy.9 mph87%29.80 "HgN/A
12:20 AM45 °FPartly cloudy.3 mph87%29.80 "HgN/A
11:50 PM
Fri, May 29
43 °FPassing clouds.5 mph87%29.80 "HgN/A
11:20 PM45 °FPassing clouds.6 mph81%29.80 "HgN/A
10:50 PM46 °FPassing clouds.6 mph76%29.80 "HgN/A
10:20 PM46 °FPassing clouds.7 mph82%29.80 "HgN/A
9:20 PM48 °FPassing clouds.7 mph76%29.77 "HgN/A
8:50 PM50 °FPassing clouds.12 mph71%29.77 "HgN/A
8:20 PM50 °FScattered clouds.13 mph67%29.77 "HgN/A
7:50 PM50 °FPassing clouds.14 mph67%29.74 "HgN/A
7:20 PM52 °FPassing clouds.14 mph62%29.74 "HgN/A
6:50 PM52 °FScattered clouds.16 mph62%29.74 "HgN/A
6:20 PM54 °FScattered clouds.17 mph63%29.71 "HgN/A
5:50 PM52 °FScattered clouds.17 mph62%29.71 "HgN/A
5:20 PM52 °FScattered clouds.17 mph67%29.71 "HgN/A
4:50 PM52 °FScattered clouds.18 mph67%29.71 "HgN/A
4:20 PM52 °FScattered clouds.17 mph62%29.71 "HgN/A
Weather by CustomWeather, © 2015

See weather overviewHow to use our weather pages